Weather History for Nuiqsut, AK

Change the Weather History Date:

Saturday, December 17, 2011

  Actual Average (PAKU) Record (PAKU)
Temperature  
Mean Temperature -18 °F -  
Max Temperature -13 °F 0 °F 12 °F (1990)
Min Temperature -23 °F -8 °F -34 °F (1990)
Degree Days  
Heating Degree Days 83    
Moisture  
Dew Point -22 °F    
Average Humidity 81    
Maximum Humidity 86    
Minimum Humidity 76    
Precipitation  
Precipitation 0.00 in - - ()
Sea Level Pressure  
Sea Level Pressure 29.80 in    
Wind  
Wind Speed 10 mph (NE)    
Max Wind Speed 21 mph    
Max Gust Speed -    
Visibility 7 miles    
Events      
Averages and records for this station are not official NWS values.
T = Trace of Precipitation, MM = Missing Value Source: NWS Daily Summary

Daily Weather History Graph

Daily Weather History Graph

Search for Another Location

Airport:

Trip Planner

Search our weather history database for the weather conditions in past years. The results will help you decide how hot, cold, wet, or windy it might be!

Date:

Astronomy

Dec. 31, 1969 Rise Set
Actual Time Sun does not rise Sun does not rise
Civil Twilight 10:59 AM AKST 3:00 PM AKST
Nautical Twilight 9:08 AM AKST 4:51 PM AKST
Astronomical Twilight 7:47 AM AKST 6:12 PM AKST
Moon 12:23 AM AKST (12/17) 12:20 PM AKST (12/17)
Length of Visible Light 4h 01m
Length of Day
0h 00m
Waning Gibbous, 52% of the Moon is Illuminated
Dec 17
Waning Gibbous
Dec 17
Last Quarter
Dec 24
New
Dec 31
First Quarter
Jan 8
Full

Hourly Weather History & Observations

Time (AKST) Temp. Windchill Dew Point Humidity Pressure Visibility Wind Dir Wind Speed Gust Speed Precip Events Conditions
12:53 AM -18.0 °F -34.7 °F -22.0 °F 82% 29.92 in 8.0 mi NE 6.9 mph - N/A   Overcast
1:53 AM -18.9 °F -32.0 °F -23.1 °F 81% 29.92 in 8.0 mi NNE 4.6 mph - N/A   Overcast
3:53 AM -20.9 °F -38.1 °F -24.0 °F 86% 29.91 in 10.0 mi NE 6.9 mph - N/A   Clear
4:32 AM -20.2 °F -38.8 °F -25.6 °F 76% 29.90 in 10.0 mi NE 8.1 mph - N/A   Scattered Clouds
4:41 AM -20.2 °F -38.8 °F -25.6 °F 76% 29.90 in 9.0 mi NE 8.1 mph - N/A   Mostly Cloudy
4:53 AM -22.0 °F -37.7 °F -25.1 °F 86% 29.90 in 9.0 mi ENE 5.8 mph - N/A   Overcast
5:53 AM -22.0 °F -37.7 °F -26.0 °F 82% 29.90 in 10.0 mi NE 5.8 mph - N/A   Mostly Cloudy
6:03 AM -22.0 °F -37.7 °F -25.6 °F 83% 29.89 in 10.0 mi NE 5.8 mph - N/A   Scattered Clouds
6:53 AM -23.1 °F -38.9 °F -26.0 °F 86% 29.89 in 10.0 mi NE 5.8 mph - N/A   Clear
7:53 AM -23.1 °F -36.8 °F -27.9 °F 78% 29.88 in 10.0 mi NE 4.6 mph - N/A   Mostly Cloudy
8:53 AM -23.1 °F -40.7 °F -27.0 °F 82% 29.87 in 9.0 mi North 6.9 mph - N/A   Overcast
9:53 AM -22.0 °F -37.7 °F -26.0 °F 82% 29.86 in 9.0 mi NNE 5.8 mph - N/A   Overcast
10:45 AM -18.4 °F -40.2 °F -23.8 °F 76% 29.84 in 6.0 mi NE 11.5 mph - N/A   Mostly Cloudy
10:53 AM -18.9 °F -40.8 °F -23.1 °F 81% 29.84 in 4.0 mi NE 11.5 mph - N/A   Scattered Clouds
11:53 AM -18.9 °F -39.8 °F -23.1 °F 81% 29.83 in 8.0 mi NE 10.4 mph - N/A   Clear
12:53 PM -18.9 °F -40.8 °F -24.0 °F 78% 29.82 in 8.0 mi NE 11.5 mph - N/A   Partly Cloudy
1:53 PM -20.0 °F -42.2 °F -24.0 °F 82% 29.81 in 9.0 mi NE 11.5 mph - N/A   Clear
2:53 PM -18.9 °F -40.8 °F -24.0 °F 78% 29.80 in 9.0 mi NE 11.5 mph - N/A   Mostly Cloudy
3:28 PM -18.4 °F -39.1 °F -23.8 °F 76% 29.78 in 7.0 mi NE 10.4 mph - N/A   Mostly Cloudy
3:53 PM -18.9 °F -39.8 °F -23.1 °F 81% 29.78 in 9.0 mi NE 10.4 mph - N/A   Overcast
4:09 PM -18.4 °F -40.2 °F -23.8 °F 76% 29.76 in 9.0 mi NE 11.5 mph - N/A   Mostly Cloudy
4:24 PM -18.4 °F -41.2 °F -23.8 °F 76% 29.75 in 9.0 mi NE 12.7 mph - N/A   Mostly Cloudy
4:53 PM -18.9 °F -39.8 °F -23.1 °F 81% 29.75 in 6.0 mi NNE 10.4 mph - N/A   Partly Cloudy
5:19 PM -16.6 °F -40.6 °F -20.2 °F 84% 29.74 in 2.5 mi NE 15.0 mph - N/A   Scattered Clouds
5:29 PM -16.6 °F -39.8 °F -20.2 °F 84% 29.74 in 1.8 mi NE 13.8 mph - N/A   Mostly Cloudy
5:42 PM -14.8 °F -38.3 °F -18.4 °F 84% 29.73 in 2.0 mi NE 15.0 mph - N/A   Overcast
5:53 PM -15.0 °F -38.5 °F -18.9 °F 82% 29.74 in 2.5 mi NE 15.0 mph - N/A   Overcast
6:17 PM -14.8 °F -37.5 °F -18.4 °F 84% 29.72 in 3.0 mi NE 13.8 mph - N/A   Scattered Clouds
6:53 PM -14.1 °F -37.4 °F -18.0 °F 82% 29.73 in 3.0 mi NE 15.0 mph - N/A   Mostly Cloudy
7:00 PM -14.8 °F -39.1 °F -18.4 °F 84% 29.72 in 3.0 mi NE 16.1 mph - N/A   Mostly Cloudy
7:12 PM -13.0 °F -36.8 °F -16.6 °F 84% 29.73 in 4.0 mi NE 16.1 mph - N/A   Scattered Clouds
7:53 PM -13.0 °F -36.8 °F -17.0 °F 82% 29.72 in 6.0 mi NE 16.1 mph - N/A   Clear
8:53 PM -14.1 °F -39.6 °F -18.0 °F 82% 29.72 in 5.0 mi NE 18.4 mph - N/A   Clear
9:53 PM -14.1 °F -39.6 °F -18.0 °F 82% 29.71 in 5.0 mi NE 18.4 mph - N/A   Clear
10:37 PM -14.8 °F -41.2 °F -18.4 °F 84% 29.69 in 3.0 mi NE 19.6 mph - N/A   Scattered Clouds
10:53 PM -14.1 °F -40.2 °F -18.0 °F 82% 29.70 in 4.0 mi NE 19.6 mph - N/A   Mostly Cloudy
11:53 PM -14.1 °F -40.8 °F -18.0 °F 82% 29.69 in 3.0 mi NE 20.7 mph - N/A   Overcast